Location: Riverside Cemetery
(38.3047°N, 99.7773°W)
Time: 02:38:47
(UTC+00:00)

ASTEX 1 - Pass Details

Date: 19 September 2020
Orbit: 721 x 742 km, 92.7° (Epoch: 22 October)

Event Time Altitude Azimuth Distance (km) Brightness Sun altitude
Rises 10:47:28 0° 352° (N) 3,185 6.8 -19.6°
Reaches altitude 10° 10:50:04 10° 340° (NNW) 2,259 5.9 -19.1°
Enters shadow 10:53:46 26° 293° (WNW) 1,444 4.5 -18.4°
